| time (UTC) | temp F | wind direction | speed knots | gust knots | rain 1hr in | rain 24hr in | rain mn in | humidity % | barometer mb |
| 20260504202003 | 52 | 360 | 7.0 | 19.1 | 0.00 | 0.00 | 0.00 | 42 | 1010.5 |
| 20260504201803 | 52 | 1 | 7.0 | 19.1 | 0.00 | 0.00 | 0.00 | 44 | 1010.5 |
| 20260504201603 | 52 | 3 | 8.7 | 20.9 | 0.00 | 0.00 | 0.00 | 42 | 1010.5 |
| 20260504201424 | 52 | 2 | 8.7 | 20.9 | 0.00 | 0.00 | 0.00 | 42 | 1010.5 |
| 20260504201203 | 52 | 1 | 12.2 | 20.9 | 0.00 | 0.00 | 0.00 | 42 | 1010.4 |
| 20260504201003 | 52 | 359 | 6.1 | 20.9 | 0.00 | 0.00 | 0.00 | 43 | 1010.4 |
| 20260504200803 | 52 | 2 | 13.0 | 22.6 | 0.00 | 0.00 | 0.00 | 43 | 1010.5 |
| 20260504200603 | 52 | 2 | 9.6 | 22.6 | 0.00 | 0.00 | 0.00 | 44 | 1010.5 |
| 20260504200403 | 52 | 3 | 6.1 | 22.6 | 0.00 | 0.00 | 0.00 | 44 | 1010.5 |
| 20260504200203 | 52 | 1 | 11.3 | 22.6 | 0.00 | 0.00 | 0.00 | 43 | 1010.5 |
| 20260504200003 | 52 | 1 | 13.9 | 22.6 | 0.00 | 0.00 | 0.00 | 42 | 1010.4 |
| 20260504195824 | 52 | 2 | 11.3 | 23.5 | 0.00 | 0.00 | 0.00 | 42 | 1010.5 |
| 20260504195603 | 52 | 357 | 9.6 | 23.5 | 0.00 | 0.00 | 0.00 | 41 | 1010.5 |
| 20260504195403 | 52 | 353 | 12.2 | 23.5 | 0.00 | 0.00 | 0.00 | 40 | 1010.5 |
| 20260504195203 | 52 | 356 | 13.0 | 23.5 | 0.00 | 0.00 | 0.00 | 40 | 1010.5 |
| 20260504195003 | 52 | 351 | 13.0 | 23.5 | 0.00 | 0.00 | 0.00 | 40 | 1010.7 |
| 20260504194803 | 52 | 343 | 11.3 | 27.8 | 0.00 | 0.00 | 0.00 | 40 | 1010.6 |
| 20260504194603 | 52 | 346 | 12.2 | 27.8 | 0.00 | 0.00 | 0.00 | 42 | 1010.6 |
| 20260504194424 | 52 | 347 | 10.4 | 27.8 | 0.00 | 0.00 | 0.00 | 41 | 1010.5 |
| 20260504194203 | 52 | 345 | 8.7 | 27.8 | 0.00 | 0.00 | 0.00 | 41 | 1010.5 |
| 20260504194003 | 52 | 346 | 11.3 | 30.4 | 0.00 | 0.00 | 0.00 | 42 | 1010.6 |
| 20260504193803 | 51 | 348 | 11.3 | 30.4 | 0.00 | 0.00 | 0.00 | 43 | 1010.5 |
| 20260504193603 | 51 | 348 | 15.6 | 30.4 | 0.00 | 0.00 | 0.00 | 43 | 1010.5 |
| 20260504193403 | 51 | 350 | 13.0 | 30.4 | 0.00 | 0.00 | 0.00 | 43 | 1010.5 |
| 20260504193203 | 51 | 350 | 15.6 | 30.4 | 0.00 | 0.00 | 0.00 | 43 | 1010.5 |
| 20260504193003 | 51 | 352 | 17.4 | 24.3 | 0.00 | 0.00 | 0.00 | 43 | 1010.5 |
| 20260504192803 | 52 | 351 | 14.8 | 24.3 | 0.00 | 0.00 | 0.00 | 43 | 1010.5 |
| 20260504192624 | 52 | 350 | 11.3 | 22.6 | 0.00 | 0.00 | 0.00 | 43 | 1010.5 |
| 20260504192403 | 52 | 349 | 13.0 | 21.7 | 0.00 | 0.00 | 0.00 | 43 | 1010.5 |
| 20260504192203 | 52 | 349 | 11.3 | 20.9 | 0.00 | 0.00 | 0.00 | 43 | 1010.4 |
| 20260504192003 | 52 | 346 | 12.2 | 20.9 | 0.00 | 0.00 | 0.00 | 44 | 1010.5 |
| 20260504191803 | 52 | 353 | 9.6 | 20.9 | 0.00 | 0.00 | 0.00 | 44 | 1010.4 |
| 20260504191603 | 52 | 357 | 10.4 | 20.9 | 0.00 | 0.00 | 0.00 | 43 | 1010.4 |
| 20260504191424 | 53 | 357 | 14.8 | 20.9 | 0.00 | 0.00 | 0.00 | 43 | 1010.5 |
| 20260504191203 | 52 | 356 | 7.8 | 22.6 | 0.00 | 0.00 | 0.00 | 45 | 1010.4 |
| 20260504191003 | 52 | 352 | 11.3 | 22.6 | 0.00 | 0.00 | 0.00 | 45 | 1010.4 |
| 20260504190803 | 52 | 348 | 8.7 | 22.6 | 0.00 | 0.00 | 0.00 | 45 | 1010.4 |
| 20260504190603 | 52 | 345 | 10.4 | 22.6 | 0.00 | 0.00 | 0.00 | 45 | 1010.5 |
| 20260504190403 | 52 | 343 | 14.8 | 22.6 | 0.00 | 0.00 | 0.00 | 44 | 1010.4 |
| 20260504190203 | 53 | 345 | 13.9 | 23.5 | 0.00 | 0.00 | 0.00 | 44 | 1010.4 |
| 20260504190004 | 53 | 347 | 8.7 | 23.5 | 0.00 | 0.00 | 0.00 | 45 | 1010.4 |
| 20260504185824 | 53 | 347 | 9.6 | 23.5 | 0.00 | 0.00 | 0.00 | 45 | 1010.4 |
| 20260504185603 | 53 | 348 | 14.8 | 23.5 | 0.00 | 0.00 | 0.00 | 44 | 1010.5 |
| 20260504185424 | 53 | 348 | 15.6 | 23.5 | 0.00 | 0.00 | 0.00 | 44 | 1010.5 |
| 20260504185224 | 53 | 347 | 9.6 | 21.7 | 0.00 | 0.00 | 0.00 | 44 | 1010.3 |
| 20260504185003 | 53 | 347 | 12.2 | 21.7 | 0.00 | 0.00 | 0.00 | 44 | 1010.4 |
| 20260504184824 | 53 | 350 | 7.0 | 20.9 | 0.00 | 0.00 | 0.00 | 45 | 1010.3 |
| 20260504184624 | 53 | 351 | 9.6 | 20.9 | 0.00 | 0.00 | 0.00 | 44 | 1010.4 |
| 20260504184403 | 53 | 350 | 11.3 | 20.9 | 0.00 | 0.00 | 0.00 | 45 | 1010.5 |
| 20260504184203 | 53 | 347 | 7.8 | 19.1 | 0.00 | 0.00 | 0.00 | 45 | 1010.4 |
| 20260504184003 | 53 | 342 | 8.7 | 19.1 | 0.00 | 0.00 | 0.00 | 45 | 1010.5 |
| 20260504183803 | 53 | 332 | 9.6 | 19.1 | 0.00 | 0.00 | 0.00 | 45 | 1010.3 |
| 20260504183624 | 53 | 325 | 11.3 | 18.2 | 0.00 | 0.00 | 0.00 | 46 | 1010.4 |
| 20260504183403 | 53 | 320 | 9.6 | 19.1 | 0.00 | 0.00 | 0.00 | 46 | 1010.5 |
| 20260504183203 | 53 | 323 | 8.7 | 19.1 | 0.00 | 0.00 | 0.00 | 46 | 1010.4 |
| 20260504183003 | 53 | 330 | 9.6 | 19.1 | 0.00 | 0.00 | 0.00 | 46 | 1010.3 |
| 20260504182803 | 52 | 337 | 8.7 | 20.0 | 0.00 | 0.00 | 0.00 | 46 | 1010.4 |
| 20260504182603 | 52 | 345 | 12.2 | 20.0 | 0.00 | 0.00 | 0.00 | 46 | 1010.4 |
| 20260504182403 | 52 | 352 | 11.3 | 21.7 | 0.00 | 0.00 | 0.00 | 46 | 1010.4 |
| 20260504182203 | 52 | 355 | 11.3 | 21.7 | 0.00 | 0.00 | 0.00 | 46 | 1010.5 |
| 20260504182003 | 52 | 358 | 12.2 | 21.7 | 0.00 | 0.00 | 0.00 | 48 | 1010.3 |
| 20260504181803 | 52 | 357 | 11.3 | 21.7 | 0.00 | 0.00 | 0.00 | 48 | 1010.3 |
| 20260504181603 | 52 | 352 | 12.2 | 21.7 | 0.00 | 0.00 | 0.00 | 47 | 1010.4 |
| 20260504181403 | 53 | 348 | 11.3 | 19.1 | 0.00 | 0.00 | 0.00 | 47 | 1010.4 |
| 20260504181224 | 53 | 344 | 12.2 | 24.3 | 0.00 | 0.00 | 0.00 | 47 | 1010.4 |
| 20260504181003 | 53 | 340 | 9.6 | 24.3 | 0.00 | 0.00 | 0.00 | 47 | 1010.4 |
| 20260504180803 | 53 | 344 | 9.6 | 24.3 | 0.00 | 0.00 | 0.00 | 48 | 1010.5 |
| 20260504180603 | 52 | 348 | 11.3 | 24.3 | 0.00 | 0.00 | 0.00 | 48 | 1010.5 |
| 20260504180403 | 52 | 349 | 12.2 | 24.3 | 0.00 | 0.00 | 0.00 | 48 | 1010.5 |
| 20260504180203 | 52 | 352 | 12.2 | 20.9 | 0.00 | 0.00 | 0.00 | 48 | 1010.6 |
| 20260504180003 | 52 | 353 | 11.3 | 17.4 | 0.00 | 0.00 | 0.00 | 48 | 1010.6 |
| 20260504175824 | 52 | 353 | 11.3 | 18.2 | 0.00 | 0.00 | 0.00 | 48 | 1010.5 |
| 20260504175624 | 52 | 353 | 12.2 | 18.2 | 0.00 | 0.00 | 0.00 | 49 | 1010.6 |
| 20260504175403 | 52 | 351 | 9.6 | 22.6 | 0.00 | 0.00 | 0.00 | 49 | 1010.5 |
| 20260504175224 | 52 | 353 | 7.8 | 22.6 | 0.00 | 0.00 | 0.00 | 49 | 1010.5 |
| 20260504175003 | 52 | 353 | 7.0 | 22.6 | 0.00 | 0.00 | 0.00 | 49 | 1010.6 |
| 20260504174803 | 52 | 351 | 11.3 | 22.6 | 0.00 | 0.00 | 0.00 | 48 | 1010.6 |
| 20260504174603 | 52 | 348 | 13.0 | 22.6 | 0.00 | 0.00 | 0.00 | 48 | 1010.6 |
| 20260504174403 | 52 | 346 | 11.3 | 20.0 | 0.00 | 0.00 | 0.00 | 48 | 1010.7 |
| 20260504174203 | 52 | 342 | 10.4 | 20.0 | 0.00 | 0.00 | 0.00 | 47 | 1010.6 |
| 20260504174024 | 52 | 336 | 6.1 | 20.0 | 0.00 | 0.00 | 0.00 | 48 | 1010.6 |
| 20260504173803 | 52 | 333 | 7.8 | 20.0 | 0.00 | 0.00 | 0.00 | 47 | 1010.6 |
| 20260504173603 | 52 | 329 | 10.4 | 20.9 | 0.00 | 0.00 | 0.00 | 47 | 1010.6 |
| 20260504173403 | 52 | 331 | 9.6 | 20.9 | 0.00 | 0.00 | 0.00 | 47 | 1010.7 |
| 20260504173224 | 52 | 330 | 13.0 | 20.9 | 0.00 | 0.00 | 0.00 | 46 | 1010.6 |
| 20260504173003 | 52 | 335 | 8.7 | 20.9 | 0.00 | 0.00 | 0.00 | 47 | 1010.7 |
| 20260504172824 | 52 | 337 | 12.2 | 20.9 | 0.00 | 0.00 | 0.00 | 48 | 1010.7 |
| 20260504172603 | 52 | 341 | 9.6 | 20.0 | 0.00 | 0.00 | 0.00 | 47 | 1010.7 |
| 20260504172403 | 52 | 339 | 12.2 | 20.0 | 0.00 | 0.00 | 0.00 | 48 | 1010.6 |
| 20260504172204 | 52 | 340 | 12.2 | 17.4 | 0.00 | 0.00 | 0.00 | 48 | 1010.6 |
| 20260504172004 | 52 | 338 | 8.7 | 18.2 | 0.00 | 0.00 | 0.00 | 49 | 1010.6 |
| 20260504171825 | 52 | 341 | 8.7 | 18.2 | 0.00 | 0.00 | 0.00 | 49 | 1010.6 |
| 20260504171603 | 52 | 343 | 12.2 | 19.1 | 0.00 | 0.00 | 0.00 | 49 | 1010.7 |
| 20260504171403 | 52 | 347 | 8.7 | 23.5 | 0.00 | 0.00 | 0.00 | 50 | 1010.6 |
| 20260504171224 | 52 | 346 | 12.2 | 23.5 | 0.00 | 0.00 | 0.00 | 49 | 1010.5 |
| 20260504171003 | 52 | 349 | 11.3 | 23.5 | 0.00 | 0.00 | 0.00 | 49 | 1010.6 |
| 20260504170803 | 51 | 347 | 11.3 | 23.5 | 0.00 | 0.00 | 0.00 | 49 | 1010.6 |
| 20260504170603 | 52 | 350 | 12.2 | 23.5 | 0.00 | 0.00 | 0.00 | 48 | 1010.5 |
| 20260504170403 | 52 | 345 | 8.7 | 20.9 | 0.00 | 0.00 | 0.00 | 49 | 1010.6 |
| 20260504170224 | 52 | 342 | 10.4 | 23.5 | 0.00 | 0.00 | 0.00 | 49 | 1010.6 |
| 20260504160403 | 50 | 350 | 13.0 | 25.2 | 0.00 | 0.00 | 0.00 | 50 | 1010.0 |
| 20260504160203 | 50 | 349 | 12.2 | 25.2 | 0.00 | 0.00 | 0.00 | 50 | 1010.1 |
| 20260504151003 | 50 | 344 | 13.9 | 22.6 | 0.00 | 0.00 | 0.00 | 50 | 1009.8 |
| 20260504150803 | 50 | 340 | 7.8 | 20.0 | 0.00 | 0.00 | 0.00 | 51 | 1009.9 |
| 20260504150603 | 50 | 339 | 9.6 | 20.0 | 0.00 | 0.00 | 0.00 | 51 | 1009.8 |
| 20260504150403 | 50 | 341 | 10.4 | 20.9 | 0.00 | 0.00 | 0.00 | 51 | 1009.9 |
| 20260504150203 | 50 | 341 | 10.4 | 20.9 | 0.00 | 0.00 | 0.00 | 51 | 1009.9 |
| 20260504141203 | 49 | 344 | 9.6 | 17.4 | 0.00 | 0.00 | 0.00 | 55 | 1009.6 |
| 20260504141003 | 49 | 344 | 7.0 | 16.5 | 0.00 | 0.00 | 0.00 | 55 | 1009.6 |
| 20260504140803 | 49 | 344 | 8.7 | 16.5 | 0.00 | 0.00 | 0.00 | 55 | 1009.6 |
| 20260504140603 | 49 | 344 | 9.6 | 16.5 | 0.00 | 0.00 | 0.00 | 55 | 1009.6 |
| 20260504140403 | 49 | 346 | 6.1 | 15.6 | 0.00 | 0.00 | 0.00 | 55 | 1009.7 |
| 20260504140203 | 48 | 342 | 7.0 | 17.4 | 0.00 | 0.00 | 0.00 | 55 | 1009.6 |
| 20260504130603 | 48 | 330 | 7.8 | 13.0 | 0.00 | 0.00 | 0.00 | 57 | 1009.5 |
| 20260504130403 | 48 | 331 | 5.2 | 13.0 | 0.00 | 0.00 | 0.00 | 57 | 1009.5 |
| 20260504130224 | 48 | 332 | 7.0 | 13.0 | 0.00 | 0.00 | 0.00 | 57 | 1009.4 |
| 20260504120203 | 47 | 345 | 7.8 | 16.5 | 0.00 | 0.00 | 0.00 | 57 | 1008.1 |
| 20260504110603 | 52 | 304 | 7.0 | 12.2 | 0.00 | 0.00 | 0.00 | 46 | 1006.0 |
| 20260504110403 | 52 | 299 | 7.8 | 12.2 | 0.00 | 0.00 | 0.00 | 47 | 1005.8 |
| 20260504110203 | 52 | 298 | 7.8 | 12.2 | 0.00 | 0.00 | 0.00 | 46 | 1005.7 |
| 20260504100603 | 53 | 303 | 8.7 | 13.9 | 0.00 | 0.00 | 0.00 | 46 | 1005.3 |
| 20260504100404 | 53 | 301 | 7.0 | 12.2 | 0.00 | 0.00 | 0.00 | 46 | 1005.2 |
| 20260504100203 | 53 | 293 | 6.1 | 11.3 | 0.00 | 0.00 | 0.00 | 46 | 1005.3 |
| 20260504082003 | 53 | 249 | 7.0 | 13.0 | 0.00 | 0.00 | 0.00 | 48 | 1005.2 |
| 20260504081803 | 53 | 251 | 7.8 | 13.0 | 0.00 | 0.00 | 0.00 | 48 | 1005.3 |
| 20260504081603 | 53 | 253 | 7.0 | 13.0 | 0.00 | 0.00 | 0.00 | 48 | 1005.3 |
| 20260504081403 | 54 | 258 | 7.8 | 13.0 | 0.00 | 0.00 | 0.00 | 48 | 1005.2 |
| 20260504081203 | 54 | 261 | 7.0 | 12.2 | 0.00 | 0.00 | 0.00 | 48 | 1005.3 |
| 20260504081003 | 54 | 265 | 7.0 | 12.2 | 0.00 | 0.00 | 0.00 | 48 | 1005.3 |
| 20260504080803 | 54 | 265 | 8.7 | 12.2 | 0.00 | 0.00 | 0.00 | 48 | 1005.3 |
| 20260504080624 | 54 | 265 | 7.8 | 12.2 | 0.00 | 0.00 | 0.00 | 48 | 1005.3 |
| 20260504080403 | 54 | 264 | 8.7 | 12.2 | 0.00 | 0.00 | 0.00 | 48 | 1005.4 |
| 20260504080224 | 54 | 263 | 8.7 | 12.2 | 0.00 | 0.00 | 0.00 | 48 | 1005.4 |
| 20260504070404 | 54 | 238 | 7.8 | 12.2 | 0.00 | 0.00 | 0.00 | 53 | 1005.7 |
| 20260504070203 | 54 | 234 | 7.0 | 12.2 | 0.00 | 0.00 | 0.00 | 53 | 1005.7 |
| 20260504060204 | 53 | 246 | 7.0 | 8.7 | 0.00 | 0.00 | 0.00 | 53 | 1006.5 |
| 20260504050604 | 55 | 264 | 7.0 | 11.3 | 0.00 | 0.00 | 0.00 | 51 | 1006.7 |
| 20260504050404 | 55 | 260 | 6.1 | 11.3 | 0.00 | 0.00 | 0.00 | 51 | 1006.8 |
| 20260504050204 | 55 | 258 | 7.8 | 11.3 | 0.00 | 0.00 | 0.00 | 51 | 1006.8 |
| 20260504050004 | 55 | 256 | 7.0 | 13.0 | 0.00 | 0.00 | 0.00 | 51 | 1006.8 |
| 20260504045804 | 55 | 254 | 7.8 | 13.0 | 0.00 | 0.00 | 0.00 | 51 | 1006.8 |
| 20260504045604 | 55 | 254 | 7.8 | 13.0 | 0.00 | 0.00 | 0.00 | 51 | 1006.7 |
| 20260504045405 | 55 | 255 | 7.0 | 13.0 | 0.00 | 0.00 | 0.00 | 51 | 1006.7 |
| 20260504045204 | 55 | 256 | 7.8 | 13.0 | 0.00 | 0.00 | 0.00 | 52 | 1006.6 |
| 20260504045004 | 55 | 256 | 8.7 | 13.0 | 0.00 | 0.00 | 0.00 | 52 | 1006.7 |
| 20260504044804 | 55 | 256 | 8.7 | 13.0 | 0.00 | 0.00 | 0.00 | 52 | 1006.6 |
| 20260504044605 | 55 | 255 | 7.8 | 13.0 | 0.00 | 0.00 | 0.00 | 52 | 1006.7 |
| 20260504044404 | 55 | 253 | 7.8 | 11.3 | 0.00 | 0.00 | 0.00 | 52 | 1006.6 |
| 20260504044204 | 55 | 250 | 7.8 | 11.3 | 0.00 | 0.00 | 0.00 | 52 | 1006.6 |
| 20260504044004 | 55 | 246 | 7.8 | 12.2 | 0.00 | 0.00 | 0.00 | 52 | 1006.6 |
| 20260504043804 | 55 | 245 | 7.8 | 13.0 | 0.00 | 0.00 | 0.00 | 52 | 1006.6 |
| 20260504043604 | 55 | 243 | 7.0 | 13.0 | 0.00 | 0.00 | 0.00 | 52 | 1006.6 |
| 20260504043404 | 55 | 246 | 7.8 | 13.0 | 0.00 | 0.00 | 0.00 | 52 | 1006.6 |
| 20260504043204 | 55 | 247 | 7.8 | 13.0 | 0.00 | 0.00 | 0.00 | 52 | 1006.6 |
| 20260504043004 | 55 | 249 | 8.7 | 13.9 | 0.00 | 0.00 | 0.00 | 53 | 1006.5 |
| 20260504042804 | 55 | 248 | 7.8 | 13.9 | 0.00 | 0.00 | 0.00 | 53 | 1006.7 |
| 20260504042625 | 55 | 248 | 8.7 | 13.9 | 0.00 | 0.00 | 0.00 | 53 | 1006.6 |
| 20260504042425 | 55 | 246 | 7.8 | 13.9 | 0.00 | 0.00 | 0.00 | 53 | 1006.6 |
| 20260504042204 | 55 | 247 | 8.7 | 14.8 | 0.00 | 0.00 | 0.00 | 53 | 1006.6 |
| 20260504042004 | 55 | 246 | 8.7 | 14.8 | 0.00 | 0.00 | 0.00 | 54 | 1006.6 |
| 20260504041804 | 55 | 247 | 9.6 | 14.8 | 0.00 | 0.00 | 0.00 | 53 | 1006.6 |
| 20260504041604 | 56 | 246 | 8.7 | 15.6 | 0.00 | 0.00 | 0.00 | 54 | 1006.6 |
| 20260504041404 | 56 | 245 | 8.7 | 15.6 | 0.00 | 0.00 | 0.00 | 54 | 1006.6 |
| 20260504041204 | 56 | 243 | 8.7 | 17.4 | 0.00 | 0.00 | 0.00 | 54 | 1006.7 |
| 20260504041026 | 56 | 242 | 8.7 | 17.4 | 0.00 | 0.00 | 0.00 | 54 | 1006.6 |
| 20260504040825 | 56 | 239 | 10.4 | 17.4 | 0.00 | 0.00 | 0.00 | 54 | 1006.6 |
| 20260504040604 | 56 | 238 | 11.3 | 17.4 | 0.00 | 0.00 | 0.00 | 54 | 1006.7 |
| 20260504040404 | 55 | 236 | 10.4 | 17.4 | 0.00 | 0.00 | 0.00 | 55 | 1006.7 |
| 20260504040204 | 55 | 234 | 9.6 | 17.4 | 0.00 | 0.00 | 0.00 | 56 | 1006.7 |
| 20260504040025 | 55 | 233 | 8.7 | 17.4 | 0.00 | 0.00 | 0.00 | 56 | 1006.7 |
| 20260504035825 | 55 | 234 | 10.4 | 17.4 | 0.00 | 0.00 | 0.00 | 57 | 1006.7 |
| 20260504035604 | 55 | 233 | 8.7 | 14.8 | 0.00 | 0.00 | 0.00 | 58 | 1006.7 |
| 20260504035425 | 55 | 235 | 9.6 | 14.8 | 0.00 | 0.00 | 0.00 | 58 | 1006.7 |
| 20260504035204 | 54 | 237 | 7.8 | 13.0 | 0.00 | 0.00 | 0.00 | 59 | 1006.8 |
| 20260504035025 | 54 | 238 | 7.8 | 13.0 | 0.00 | 0.00 | 0.00 | 59 | 1006.9 |
| 20260504034804 | 54 | 240 | 7.8 | 12.2 | 0.00 | 0.00 | 0.00 | 60 | 1006.9 |
| 20260504034604 | 54 | 241 | 7.8 | 12.2 | 0.00 | 0.00 | 0.00 | 61 | 1006.9 |
| 20260504034404 | 54 | 242 | 7.0 | 12.2 | 0.00 | 0.00 | 0.00 | 61 | 1006.9 |
| 20260504034204 | 54 | 242 | 7.0 | 11.3 | 0.00 | 0.00 | 0.00 | 62 | 1006.9 |
| 20260504034004 | 54 | 242 | 7.0 | 11.3 | 0.00 | 0.00 | 0.00 | 63 | 1007.0 |
| 20260504033804 | 54 | 242 | 7.0 | 11.3 | 0.00 | 0.00 | 0.00 | 63 | 1007.0 |
| 20260504033604 | 54 | 241 | 7.0 | 11.3 | 0.00 | 0.00 | 0.00 | 64 | 1007.1 |
| 20260504033425 | 54 | 241 | 6.1 | 10.4 | 0.00 | 0.00 | 0.00 | 64 | 1007.1 |
| 20260504033204 | 54 | 239 | 5.2 | 7.8 | 0.00 | 0.00 | 0.00 | 65 | 1007.1 |
| 20260504033004 | 54 | 236 | 4.3 | 10.4 | 0.00 | 0.00 | 0.00 | 65 | 1007.1 |
| 20260504032804 | 54 | 234 | 5.2 | 10.4 | 0.00 | 0.00 | 0.00 | 65 | 1007.1 |
| 20260504032604 | 54 | 233 | 4.3 | 11.3 | 0.00 | 0.00 | 0.00 | 64 | 1007.1 |
| 20260504032404 | 54 | 231 | 6.1 | 11.3 | 0.00 | 0.00 | 0.00 | 64 | 1007.1 |
| 20260504032204 | 54 | 230 | 7.0 | 11.3 | 0.00 | 0.00 | 0.00 | 64 | 1007.0 |
| 20260504032004 | 54 | 229 | 7.0 | 11.3 | 0.00 | 0.00 | 0.00 | 64 | 1007.0 |
| 20260504031804 | 54 | 229 | 7.8 | 11.3 | 0.00 | 0.00 | 0.00 | 64 | 1007.0 |
| 20260504031604 | 54 | 229 | 7.0 | 11.3 | 0.00 | 0.00 | 0.00 | 64 | 1007.0 |
| 20260504031404 | 54 | 228 | 7.0 | 12.2 | 0.00 | 0.00 | 0.00 | 64 | 1007.0 |
| 20260504031204 | 54 | 228 | 7.8 | 12.2 | 0.00 | 0.00 | 0.00 | 64 | 1007.0 |
| 20260504031004 | 54 | 229 | 7.8 | 13.0 | 0.00 | 0.00 | 0.00 | 64 | 1007.0 |
| 20260504030804 | 54 | 229 | 7.8 | 13.0 | 0.00 | 0.00 | 0.00 | 64 | 1007.0 |
| 20260504030604 | 54 | 228 | 7.8 | 13.0 | 0.00 | 0.00 | 0.00 | 64 | 1006.9 |
| 20260504030425 | 54 | 229 | 8.7 | 13.0 | 0.00 | 0.00 | 0.00 | 64 | 1006.9 |
| 20260504030204 | 54 | 228 | 8.7 | 13.0 | 0.00 | 0.00 | 0.00 | 64 | 1006.9 |
| 20260504030004 | 54 | 225 | 8.7 | 12.2 | 0.00 | 0.00 | 0.00 | 64 | 1006.9 |
| 20260504025804 | 54 | 224 | 7.8 | 12.2 | 0.00 | 0.00 | 0.00 | 64 | 1006.9 |
| 20260504025604 | 54 | 224 | 7.8 | 12.2 | 0.00 | 0.00 | 0.00 | 63 | 1006.9 |
| 20260504025404 | 54 | 223 | 7.0 | 12.2 | 0.00 | 0.00 | 0.00 | 63 | 1006.9 |
| 20260504025204 | 54 | 221 | 7.0 | 11.3 | 0.00 | 0.00 | 0.00 | 63 | 1006.9 |
| 20260504025025 | 54 | 220 | 7.0 | 11.3 | 0.00 | 0.00 | 0.00 | 63 | 1006.9 |
| 20260504024804 | 55 | 219 | 7.0 | 13.0 | 0.00 | 0.00 | 0.00 | 63 | 1006.9 |
| 20260504024604 | 55 | 217 | 7.0 | 13.0 | 0.00 | 0.00 | 0.00 | 63 | 1006.9 |
| 20260504024404 | 55 | 217 | 7.0 | 13.9 | 0.00 | 0.00 | 0.00 | 63 | 1006.9 |
| 20260504024204 | 55 | 218 | 7.8 | 13.9 | 0.00 | 0.00 | 0.00 | 63 | 1006.9 |
| 20260504024004 | 55 | 217 | 7.0 | 13.9 | 0.00 | 0.00 | 0.00 | 63 | 1006.9 |
| 20260504023804 | 55 | 217 | 7.0 | 13.9 | 0.00 | 0.00 | 0.00 | 63 | 1006.9 |
| 20260504023604 | 55 | 218 | 8.7 | 13.9 | 0.00 | 0.00 | 0.00 | 63 | 1006.9 |
| 20260504023404 | 55 | 218 | 8.7 | 12.2 | 0.00 | 0.00 | 0.00 | 63 | 1006.9 |
| 20260504023204 | 55 | 216 | 7.8 | 12.2 | 0.00 | 0.00 | 0.00 | 63 | 1006.9 |
| 20260504023004 | 55 | 216 | 7.8 | 12.2 | 0.00 | 0.00 | 0.00 | 63 | 1006.9 |
| 20260504022825 | 55 | 215 | 7.0 | 12.2 | 0.00 | 0.00 | 0.00 | 62 | 1006.9 |
| 20260504022625 | 55 | 214 | 8.7 | 12.2 | 0.00 | 0.00 | 0.00 | 62 | 1006.9 |
| 20260504022404 | 55 | 213 | 7.8 | 12.2 | 0.00 | 0.00 | 0.00 | 62 | 1006.9 |
| 20260504022204 | 55 | 213 | 7.8 | 12.2 | 0.00 | 0.00 | 0.00 | 62 | 1006.9 |
| 20260504022004 | 55 | 212 | 7.0 | 11.3 | 0.00 | 0.00 | 0.00 | 62 | 1006.9 |
| 20260504021804 | 55 | 212 | 7.8 | 11.3 | 0.00 | 0.00 | 0.00 | 62 | 1007.0 |
| 20260504021604 | 55 | 211 | 7.8 | 11.3 | 0.00 | 0.00 | 0.00 | 62 | 1007.0 |
| 20260504021404 | 55 | 210 | 7.0 | 11.3 | 0.00 | 0.00 | 0.00 | 62 | 1007.1 |
| 20260504021225 | 55 | 210 | 6.1 | 10.4 | 0.00 | 0.00 | 0.00 | 61 | 1007.0 |
| 20260504021004 | 55 | 210 | 7.0 | 10.4 | 0.00 | 0.00 | 0.00 | 61 | 1007.1 |
| 20260504020825 | 55 | 209 | 6.1 | 8.7 | 0.00 | 0.00 | 0.00 | 61 | 1007.1 |
| 20260504020605 | 55 | 208 | 6.1 | 11.3 | 0.00 | 0.00 | 0.00 | 60 | 1007.1 |
| 20260504020404 | 56 | 207 | 5.2 | 11.3 | 0.00 | 0.00 | 0.00 | 60 | 1007.1 |
| 20260504020225 | 56 | 207 | 5.2 | 11.3 | 0.00 | 0.00 | 0.00 | 60 | 1007.1 |
| 20260504015804 | 56 | 205 | 5.2 | 11.3 | 0.00 | 0.00 | 0.00 | 60 | 1007.1 |
| 20260504015604 | 56 | 206 | 5.2 | 11.3 | 0.00 | 0.00 | 0.00 | 59 | 1007.1 |
| 20260504015404 | 56 | 207 | 6.1 | 12.2 | 0.00 | 0.00 | 0.00 | 59 | 1007.2 |
| 20260504015225 | 56 | 207 | 6.1 | 12.2 | 0.00 | 0.00 | 0.00 | 59 | 1007.2 |
| 20260504015004 | 56 | 208 | 7.0 | 13.0 | 0.00 | 0.00 | 0.00 | 59 | 1007.2 |
| 20260504014804 | 57 | 209 | 5.2 | 13.0 | 0.00 | 0.00 | 0.00 | 58 | 1007.2 |
| 20260504014625 | 57 | 208 | 7.0 | 13.0 | 0.00 | 0.00 | 0.00 | 58 | 1007.2 |
| 20260504014425 | 57 | 207 | 7.8 | 13.0 | 0.00 | 0.00 | 0.00 | 58 | 1007.2 |
| 20260504014204 | 57 | 206 | 7.8 | 13.0 | 0.00 | 0.00 | 0.00 | 58 | 1007.2 |
| 20260504014004 | 57 | 207 | 7.0 | 13.9 | 0.00 | 0.00 | 0.00 | 57 | 1007.2 |
| 20260504013825 | 57 | 207 | 6.1 | 13.9 | 0.00 | 0.00 | 0.00 | 57 | 1007.2 |
| 20260504013604 | 57 | 209 | 6.1 | 13.9 | 0.00 | 0.00 | 0.00 | 57 | 1007.2 |
| 20260504013404 | 58 | 209 | 6.1 | 13.9 | 0.00 | 0.00 | 0.00 | 57 | 1007.3 |
| 20260504013226 | 58 | 210 | 7.0 | 13.9 | 0.00 | 0.00 | 0.00 | 56 | 1007.3 |
| 20260504013004 | 58 | 208 | 6.1 | 10.4 | 0.00 | 0.00 | 0.00 | 56 | 1007.4 |
| 20260504012804 | 58 | 206 | 6.1 | 10.4 | 0.00 | 0.00 | 0.00 | 56 | 1007.4 |
| 20260504012604 | 58 | 206 | 5.2 | 13.0 | 0.00 | 0.00 | 0.00 | 56 | 1007.5 |
| 20260504012404 | 59 | 205 | 5.2 | 13.0 | 0.00 | 0.00 | 0.00 | 55 | 1007.5 |
| 20260504012204 | 59 | 201 | 5.2 | 13.0 | 0.00 | 0.00 | 0.00 | 55 | 1007.5 |
| 20260504012004 | 59 | 202 | 6.1 | 13.0 | 0.00 | 0.00 | 0.00 | 54 | 1007.5 |
| 20260504011804 | 59 | 201 | 6.1 | 13.0 | 0.00 | 0.00 | 0.00 | 54 | 1007.6 |
| 20260504011604 | 59 | 198 | 4.3 | 10.4 | 0.00 | 0.00 | 0.00 | 54 | 1007.6 |
| 20260504011405 | 59 | 198 | 5.2 | 11.3 | 0.00 | 0.00 | 0.00 | 53 | 1007.7 |
| 20260504011204 | 60 | 200 | 6.1 | 11.3 | 0.00 | 0.00 | 0.00 | 53 | 1007.8 |
| 20260504011004 | 60 | 198 | 5.2 | 11.3 | 0.00 | 0.00 | 0.00 | 53 | 1007.8 |
| 20260504010804 | 60 | 196 | 5.2 | 11.3 | 0.00 | 0.00 | 0.00 | 53 | 1007.8 |
| 20260504010625 | 60 | 195 | 6.1 | 11.3 | 0.00 | 0.00 | 0.00 | 52 | 1008.0 |
| 20260504010404 | 60 | 195 | 5.2 | 12.2 | 0.00 | 0.00 | 0.00 | 52 | 1007.9 |
| 20260504010204 | 60 | 196 | 6.1 | 12.2 | 0.00 | 0.00 | 0.00 | 52 | 1008.0 |
| 20260504010004 | 60 | 198 | 5.2 | 12.2 | 0.00 | 0.00 | 0.00 | 52 | 1008.0 |
| 20260504005804 | 60 | 200 | 7.0 | 12.2 | 0.00 | 0.00 | 0.00 | 52 | 1008.1 |
| 20260504005604 | 60 | 202 | 7.0 | 14.8 | 0.00 | 0.00 | 0.00 | 52 | 1008.1 |
| 20260504005404 | 60 | 203 | 7.0 | 14.8 | 0.00 | 0.00 | 0.00 | 52 | 1008.2 |
| 20260504005204 | 61 | 205 | 7.0 | 14.8 | 0.00 | 0.00 | 0.00 | 52 | 1008.2 |
| 20260504005004 | 61 | 208 | 6.1 | 14.8 | 0.00 | 0.00 | 0.00 | 51 | 1008.3 |
| 20260504004804 | 61 | 207 | 7.8 | 14.8 | 0.00 | 0.00 | 0.00 | 51 | 1008.3 |
| 20260504004604 | 61 | 207 | 6.1 | 13.0 | 0.00 | 0.00 | 0.00 | 50 | 1008.3 |
| 20260504004404 | 61 | 205 | 7.0 | 13.0 | 0.00 | 0.00 | 0.00 | 50 | 1008.4 |
| 20260504004204 | 61 | 203 | 6.1 | 13.0 | 0.00 | 0.00 | 0.00 | 51 | 1008.4 |
| 20260504004004 | 61 | 199 | 5.2 | 13.0 | 0.00 | 0.00 | 0.00 | 50 | 1008.4 |
| 20260504003804 | 61 | 200 | 6.1 | 16.5 | 0.00 | 0.00 | 0.00 | 50 | 1008.4 |
| 20260504003604 | 61 | 201 | 4.3 | 16.5 | 0.00 | 0.00 | 0.00 | 50 | 1008.4 |
| 20260504003404 | 61 | 202 | 5.2 | 16.5 | 0.00 | 0.00 | 0.00 | 49 | 1008.4 |
| 20260504003204 | 61 | 204 | 6.1 | 16.5 | 0.00 | 0.00 | 0.00 | 49 | 1008.5 |
| 20260504003004 | 62 | 205 | 7.0 | 16.5 | 0.00 | 0.00 | 0.00 | 49 | 1008.5 |
| 20260504002825 | 62 | 201 | 5.2 | 15.6 | 0.00 | 0.00 | 0.00 | 49 | 1008.5 |
| 20260504002604 | 61 | 201 | 5.2 | 15.6 | 0.00 | 0.00 | 0.00 | 49 | 1008.6 |
| 20260504002404 | 62 | 202 | 6.1 | 15.6 | 0.00 | 0.00 | 0.00 | 48 | 1008.6 |
| 20260504002204 | 62 | 202 | 7.0 | 15.6 | 0.00 | 0.00 | 0.00 | 48 | 1008.6 |
| 20260504002004 | 62 | 203 | 7.8 | 15.6 | 0.00 | 0.00 | 0.00 | 49 | 1008.5 |
| 20260504001804 | 62 | 207 | 3.5 | 14.8 | 0.00 | 0.00 | 0.00 | 49 | 1008.7 |
| 20260504001604 | 62 | 207 | 5.2 | 14.8 | 0.00 | 0.00 | 0.00 | 48 | 1008.7 |
| 20260504001404 | 62 | 203 | 5.2 | 14.8 | 0.00 | 0.00 | 0.00 | 48 | 1008.8 |
| 20260504001204 | 62 | 202 | 5.2 | 14.8 | 0.00 | 0.00 | 0.00 | 48 | 1008.8 |
| 20260504001004 | 62 | 200 | 7.8 | 14.8 | 0.00 | 0.00 | 0.00 | 48 | 1008.8 |
| 20260504000825 | 62 | 199 | 6.1 | 13.9 | 0.00 | 0.00 | 0.00 | 48 | 1008.8 |
| 20260504000604 | 62 | 198 | 6.1 | 13.9 | 0.00 | 0.00 | 0.00 | 47 | 1008.9 |
| 20260504000404 | 63 | 200 | 7.0 | 13.9 | 0.00 | 0.00 | 0.00 | 46 | 1008.9 |
| 20260504000205 | 63 | 201 | 7.8 | 13.9 | 0.00 | 0.00 | 0.00 | 47 | 1008.9 |
| 20260504000004 | 63 | 199 | 7.8 | 13.9 | 0.00 | 0.00 | 0.00 | 48 | 1009.1 |
| 20260503235825 | 63 | 200 | 5.2 | 13.9 | 0.00 | 0.00 | 0.00 | 48 | 1009.1 |
| 20260503235625 | 63 | 203 | 6.1 | 13.9 | 0.00 | 0.00 | 0.00 | 47 | 1009.1 |
| 20260503235404 | 63 | 203 | 6.1 | 13.9 | 0.00 | 0.00 | 0.00 | 45 | 1009.2 |
| 20260503235205 | 64 | 204 | 8.7 | 14.8 | 0.00 | 0.00 | 0.00 | 45 | 1009.1 |
| 20260503235004 | 64 | 209 | 8.7 | 14.8 | 0.00 | 0.00 | 0.00 | 43 | 1009.2 |
| 20260503234804 | 64 | 209 | 5.2 | 14.8 | 0.00 | 0.00 | 0.00 | 43 | 1009.2 |
| 20260503234604 | 64 | 209 | 7.0 | 14.8 | 0.00 | 0.00 | 0.00 | 43 | 1009.2 |
| 20260503234404 | 64 | 209 | 8.7 | 14.8 | 0.00 | 0.00 | 0.00 | 43 | 1009.2 |
| 20260503234225 | 64 | 210 | 7.0 | 13.9 | 0.00 | 0.00 | 0.00 | 43 | 1009.2 |
| 20260503234026 | 64 | 210 | 7.8 | 13.9 | 0.00 | 0.00 | 0.00 | 43 | 1009.3 |
| 20260503233804 | 64 | 210 | 4.3 | 12.2 | 0.00 | 0.00 | 0.00 | 42 | 1009.3 |
| 20260503233604 | 64 | 207 | 4.3 | 12.2 | 0.00 | 0.00 | 0.00 | 43 | 1009.3 |
| 20260503233425 | 64 | 210 | 7.8 | 12.2 | 0.00 | 0.00 | 0.00 | 42 | 1009.4 |
| 20260503233225 | 64 | 211 | 5.2 | 11.3 | 0.00 | 0.00 | 0.00 | 42 | 1009.5 |
| 20260503233004 | 64 | 210 | 5.2 | 11.3 | 0.00 | 0.00 | 0.00 | 42 | 1009.5 |
| 20260503232804 | 64 | 213 | 7.0 | 11.3 | 0.00 | 0.00 | 0.00 | 42 | 1009.6 |
| 20260503232604 | 64 | 214 | 6.1 | 11.3 | 0.00 | 0.00 | 0.00 | 42 | 1009.5 |
| 20260503232404 | 64 | 218 | 6.1 | 11.3 | 0.00 | 0.00 | 0.00 | 44 | 1009.7 |
| 20260503232225 | 64 | 222 | 5.2 | 11.3 | 0.00 | 0.00 | 0.00 | 45 | 1009.6 |
| 20260503232004 | 64 | 225 | 6.1 | 13.0 | 0.00 | 0.00 | 0.00 | 46 | 1009.7 |
| 20260503231804 | 64 | 225 | 2.6 | 13.0 | 0.00 | 0.00 | 0.00 | 47 | 1009.8 |
| 20260503231604 | 64 | 227 | 5.2 | 13.0 | 0.00 | 0.00 | 0.00 | 48 | 1009.8 |
| 20260503231404 | 63 | 228 | 7.0 | 13.0 | 0.00 | 0.00 | 0.00 | 48 | 1009.9 |
| 20260503231205 | 63 | 232 | 7.0 | 13.0 | 0.00 | 0.00 | 0.00 | 48 | 1009.9 |
| 20260503231004 | 63 | 235 | 6.1 | 11.3 | 0.00 | 0.00 | 0.00 | 48 | 1009.9 |
| 20260503230804 | 62 | 240 | 6.1 | 11.3 | 0.00 | 0.00 | 0.00 | 49 | 1009.9 |
| 20260503230604 | 62 | 241 | 7.0 | 11.3 | 0.00 | 0.00 | 0.00 | 50 | 1009.9 |
| 20260503230425 | 62 | 240 | 5.2 | 10.4 | 0.00 | 0.00 | 0.00 | 50 | 1010.0 |
| 20260503230204 | 61 | 236 | 5.2 | 10.4 | 0.00 | 0.00 | 0.00 | 53 | 1010.0 |
| 20260503230025 | 61 | 235 | 6.1 | 10.4 | 0.00 | 0.00 | 0.00 | 52 | 1010.0 |
| 20260503225804 | 60 | 232 | 7.0 | 11.3 | 0.00 | 0.00 | 0.00 | 55 | 1010.0 |
| 20260503225604 | 60 | 234 | 7.0 | 11.3 | 0.00 | 0.00 | 0.00 | 55 | 1010.1 |
| 20260503225404 | 60 | 234 | 5.2 | 12.2 | 0.00 | 0.00 | 0.00 | 57 | 1010.2 |
| 20260503225225 | 59 | 234 | 6.1 | 12.2 | 0.00 | 0.00 | 0.00 | 56 | 1010.1 |
| 20260503225004 | 59 | 238 | 5.2 | 12.2 | 0.00 | 0.00 | 0.00 | 56 | 1010.2 |
| 20260503224825 | 59 | 240 | 5.2 | 12.2 | 0.00 | 0.00 | 0.00 | 55 | 1010.3 |
| 20260503224604 | 60 | 237 | 7.8 | 13.0 | 0.00 | 0.00 | 0.00 | 55 | 1010.4 |
| 20260503224404 | 60 | 237 | 7.8 | 13.0 | 0.00 | 0.00 | 0.00 | 53 | 1010.4 |
| 20260503224204 | 60 | 234 | 7.0 | 13.0 | 0.00 | 0.00 | 0.00 | 53 | 1010.4 |
| 20260503224004 | 61 | 235 | 7.0 | 13.9 | 0.00 | 0.00 | 0.00 | 53 | 1010.5 |
| 20260503223826 | 61 | 236 | 7.8 | 13.9 | 0.00 | 0.00 | 0.00 | 54 | 1010.5 |
| 20260503223604 | 62 | 237 | 7.8 | 13.9 | 0.00 | 0.00 | 0.00 | 53 | 1010.6 |
| 20260503223404 | 62 | 241 | 6.1 | 13.9 | 0.00 | 0.00 | 0.00 | 53 | 1010.6 |
| 20260503223205 | 62 | 242 | 8.7 | 13.9 | 0.00 | 0.00 | 0.00 | 50 | 1010.6 |
| 20260503223004 | 62 | 239 | 9.6 | 14.8 | 0.00 | 0.00 | 0.00 | 53 | 1010.6 |
| 20260503222804 | 62 | 236 | 7.0 | 17.4 | 0.00 | 0.00 | 0.00 | 53 | 1010.8 |
| 20260503222604 | 62 | 236 | 9.6 | 17.4 | 0.00 | 0.00 | 0.00 | 51 | 1010.8 |
| 20260503222404 | 62 | 233 | 7.0 | 17.4 | 0.00 | 0.00 | 0.00 | 54 | 1010.9 |
| 20260503222205 | 61 | 234 | 9.6 | 17.4 | 0.00 | 0.00 | 0.00 | 55 | 1010.9 |
| 20260503222004 | 61 | 235 | 9.6 | 17.4 | 0.00 | 0.00 | 0.00 | 57 | 1011.0 |
| 20260503221804 | 61 | 234 | 7.0 | 15.6 | 0.00 | 0.00 | 0.00 | 58 | 1011.1 |
| 20260503221604 | 60 | 231 | 7.8 | 15.6 | 0.00 | 0.00 | 0.00 | 57 | 1011.2 |
| 20260503221404 | 60 | 228 | 11.3 | 15.6 | 0.00 | 0.00 | 0.00 | 59 | 1011.2 |
| 20260503221204 | 60 | 225 | 9.6 | 15.6 | 0.00 | 0.00 | 0.00 | 59 | 1011.3 |
| 20260503221004 | 60 | 225 | 7.0 | 12.2 | 0.00 | 0.00 | 0.00 | 60 | 1011.3 |
| 20260503220804 | 60 | 226 | 6.1 | 12.2 | 0.00 | 0.00 | 0.00 | 59 | 1011.2 |
| 20260503220604 | 60 | 231 | 7.8 | 12.2 | 0.00 | 0.00 | 0.00 | 60 | 1011.3 |
| 20260503220404 | 60 | 236 | 7.8 | 12.2 | 0.00 | 0.00 | 0.00 | 60 | 1011.3 |
| 20260503220204 | 60 | 244 | 7.0 | 12.2 | 0.00 | 0.00 | 0.00 | 60 | 1011.3 |
| 20260503220004 | 59 | 253 | 3.5 | 8.7 | 0.00 | 0.00 | 0.00 | 63 | 1011.4 |
| 20260503215804 | 59 | 256 | 6.1 | 8.7 | 0.00 | 0.00 | 0.00 | 67 | 1011.4 |
| 20260503215625 | 59 | 259 | 6.1 | 7.0 | 0.00 | 0.00 | 0.00 | 65 | 1011.4 |
| 20260503215404 | 58 | 265 | 2.6 | 6.1 | 0.00 | 0.00 | 0.00 | 61 | 1011.4 |
| 20260503215204 | 58 | 257 | 2.6 | 6.1 | 0.00 | 0.00 | 0.00 | 64 | 1011.4 |
| 20260503215025 | 58 | 248 | 3.5 | 6.1 | 0.00 | 0.00 | 0.00 | 64 | 1011.4 |
| 20260503214804 | 57 | 243 | 4.3 | 6.1 | 0.00 | 0.00 | 0.00 | 67 | 1011.6 |
| 20260503214625 | 57 | 243 | 3.5 | 6.1 | 0.00 | 0.00 | 0.00 | 66 | 1011.6 |
| 20260503214404 | 57 | 248 | 4.3 | 6.1 | 0.00 | 0.00 | 0.00 | 67 | 1011.6 |
| 20260503214204 | 57 | 256 | 2.6 | 6.1 | 0.00 | 0.00 | 0.00 | 68 | 1011.6 |
| 20260503214004 | 57 | 268 | 3.5 | 6.1 | 0.00 | 0.00 | 0.00 | 66 | 1011.6 |
| 20260503213804 | 57 | 276 | 4.3 | 6.1 | 0.00 | 0.00 | 0.00 | 66 | 1011.7 |
| 20260503213604 | 57 | 289 | 3.5 | 5.2 | 0.00 | 0.00 | 0.00 | 65 | 1011.7 |
| 20260503213425 | 57 | 298 | 2.6 | 4.3 | 0.00 | 0.00 | 0.00 | 64 | 1011.8 |
| 20260503213204 | 57 | 314 | 2.6 | 5.2 | 0.00 | 0.00 | 0.00 | 64 | 1011.8 |
| 20260503213004 | 57 | 331 | 1.7 | 6.1 | 0.00 | 0.00 | 0.00 | 63 | 1011.7 |
| 20260503212804 | 57 | 338 | 1.7 | 7.0 | 0.00 | 0.00 | 0.00 | 62 | 1011.8 |
| 20260503212604 | 57 | 347 | 1.7 | 7.0 | 0.00 | 0.00 | 0.00 | 61 | 1011.8 |
| 20260503212404 | 57 | 353 | 3.5 | 7.8 | 0.00 | 0.00 | 0.00 | 60 | 1011.9 |
| 20260503212204 | 57 | 357 | 4.3 | 7.8 | 0.00 | 0.00 | 0.00 | 60 | 1011.9 |
| 20260503212004 | 58 | 357 | 3.5 | 7.8 | 0.00 | 0.00 | 0.00 | 61 | 1011.9 |
| 20260503211804 | 58 | 357 | 4.3 | 7.8 | 0.00 | 0.00 | 0.00 | 60 | 1012.0 |
| 20260503211604 | 58 | 353 | 4.3 | 7.8 | 0.00 | 0.00 | 0.00 | 59 | 1011.9 |
| 20260503211425 | 59 | 346 | 4.3 | 7.8 | 0.00 | 0.00 | 0.00 | 59 | 1012.0 |
| 20260503211204 | 59 | 333 | 2.6 | 7.0 | 0.00 | 0.00 | 0.00 | 56 | 1012.0 |
| 20260503211004 | 59 | 335 | 1.7 | 7.0 | 0.00 | 0.00 | 0.00 | 53 | 1012.0 |
| 20260503210804 | 59 | 339 | 1.7 | 7.0 | 0.00 | 0.00 | 0.00 | 52 | 1012.0 |
| 20260503210604 | 59 | 343 | 3.5 | 7.0 | 0.00 | 0.00 | 0.00 | 52 | 1012.0 |
| 20260503210404 | 60 | 345 | 5.2 | 7.0 | 0.00 | 0.00 | 0.00 | 52 | 1012.2 |
| 20260503210204 | 60 | 353 | 4.3 | 7.0 | 0.00 | 0.00 | 0.00 | 50 | 1012.2 |
| 20260503210005 | 60 | 356 | 4.3 | 7.0 | 0.00 | 0.00 | 0.00 | 50 | 1012.2 |
| 20260503205804 | 60 | 360 | 3.5 | 6.1 | 0.00 | 0.00 | 0.00 | 49 | 1012.1 |
| 20260503205625 | 60 | 2 | 2.6 | 6.1 | 0.00 | 0.00 | 0.00 | 49 | 1012.1 |
| 20260503205404 | 60 | 21 | 2.6 | 4.3 | 0.00 | 0.00 | 0.00 | 48 | 1012.1 |
| 20260503205204 | 60 | 78 | 0.0 | 1.7 | 0.00 | 0.00 | 0.00 | 47 | 1012.0 |
| 20260503205025 | 61 | 114 | 0.0 | 3.5 | 0.00 | 0.00 | 0.00 | 47 | 1012.0 |
| 20260503204825 | 61 | 121 | 0.9 | 3.5 | 0.00 | 0.00 | 0.00 | 46 | 1011.9 |
| 20260503204604 | 61 | 131 | 0.0 | 3.5 | 0.00 | 0.00 | 0.00 | 47 | 1011.9 |
| 20260503204404 | 61 | 127 | 0.0 | 3.5 | 0.00 | 0.00 | 0.00 | 49 | 1011.7 |
| 20260503204204 | 61 | 125 | 0.9 | 3.5 | 0.00 | 0.00 | 0.00 | 47 | 1011.7 |
| 20260503204005 | 61 | 101 | 0.9 | 3.5 | 0.00 | 0.00 | 0.00 | 47 | 1011.7 |
| 20260503203804 | 61 | 92 | 1.7 | 3.5 | 0.00 | 0.00 | 0.00 | 48 | 1011.7 |
| 20260503203604 | 61 | 78 | 0.9 | 3.5 | 0.00 | 0.00 | 0.00 | 49 | 1011.7 |
| 20260503203425 | 62 | 65 | 0.0 | 3.5 | 0.00 | 0.00 | 0.00 | 48 | 1011.7 |
| 20260503203204 | 62 | 66 | 1.7 | 3.5 | 0.00 | 0.00 | 0.00 | 47 | 1011.8 |
| 20260503203004 | 62 | 74 | 1.7 | 3.5 | 0.00 | 0.00 | 0.00 | 50 | 1011.8 |
| 20260503202804 | 62 | 85 | 0.0 | 3.5 | 0.00 | 0.00 | 0.00 | 48 | 1011.7 |
| 20260503202604 | 62 | 108 | 1.7 | 3.5 | 0.00 | 0.00 | 0.00 | 49 | 1011.8 |
| 20260503202404 | 62 | 166 | 0.9 | 3.5 | 0.00 | 0.00 | 0.00 | 47 | 1011.8 |
| 20260503202225 | 61 | 191 | 0.9 | 3.5 | 0.00 | 0.00 | 0.00 | 47 | 1011.9 |